Weather History for Lamar, CO

Change the Weather History Date:

Sunday, November 3, 2013

  Actual Average Record
Temperature  
Mean Temperature 56 °F 45 °F  
Max Temperature 79 °F 63 °F 82 °F (1921)
Min Temperature 32 °F 28 °F -18 °F (1991)
Degree Days  
Heating Degree Days 9 20  
Month to date heating degree days 50 58  
Since 1 July heating degree days 462 525  
Cooling Degree Days 0 0  
Month to date cooling degree days 0 0  
Year to date cooling degree days 1568 1121  
Growing Degree Days 6 (Base 50)    
Moisture  
Dew Point 24 °F    
Average Humidity 46    
Maximum Humidity 82    
Minimum Humidity 9    
Precipitation  
Precipitation 0.00 in 0.02 in 1.36 in (1946)
Month to date precipitation 0.00 0.07  
Year to date precipitation 10.06 14.49  
Sea Level Pressure  
Sea Level Pressure 29.57 in    
Wind  
Wind Speed 9 mph (WSW)    
Max Wind Speed 30 mph    
Max Gust Speed 39 mph    
Visibility 10 miles    
Events      
T = Trace of Precipitation, MM = Missing Value Source: NWS Daily Summary

Daily Weather History Graph

Daily Weather History Graph

Search for Another Location

Airport:

Trip Planner

Search our weather history database for the weather conditions in past years. The results will help you decide how hot, cold, wet, or windy it might be!

Date:

Astronomy

Nov. 03, 2013 Rise Set
Actual Time 6:18 AM MST 4:49 PM MST
Civil Twilight 5:51 AM MST 5:16 PM MST
Nautical Twilight 5:20 AM MST 5:47 PM MST
Astronomical Twilight 4:49 AM MST 6:18 PM MST
Moon 6:24 AM MST (11/3) 5:06 PM MST (11/3)
Length of Visible Light 11h 24m
Length of Day
10h 30m
New Moon, 0% of the Moon is Illuminated
Nov 3
New Moon
Nov 9
First Quarter
Nov 17
Full
Nov 25
Last Quarter
Dec 2
New

Hourly Weather History & Observations

Time (MST) Temp. Windchill Dew Point Humidity Pressure Visibility Wind Dir Wind Speed Gust Speed Precip Events Conditions
12:53 AM 42.1 °F 40.2 °F 27.0 °F 55% 29.73 in 10.0 mi WSW 3.5 mph - N/A   Clear
1:53 AM 37.9 °F 34.4 °F 28.0 °F 68% 29.71 in 10.0 mi SSW 4.6 mph - N/A   Clear
1:53 AM 35.1 °F - 27.0 °F 72% 29.69 in 10.0 mi Calm Calm - N/A   Clear
2:53 AM 34.0 °F - 28.0 °F 79% 29.68 in 10.0 mi Calm Calm - N/A   Clear
3:53 AM 35.1 °F - 28.9 °F 78% 29.66 in 10.0 mi Calm Calm - N/A   Clear
4:53 AM 36.0 °F 29.6 °F 28.0 °F 73% 29.65 in 10.0 mi ENE 8.1 mph - N/A   Clear
5:53 AM 35.1 °F 29.3 °F 28.9 °F 78% 29.62 in 10.0 mi ENE 6.9 mph - N/A   Clear
6:53 AM 35.1 °F - 30.0 °F 82% 29.62 in 10.0 mi Calm Calm - N/A   Clear
7:53 AM 36.0 °F - 30.0 °F 79% 29.62 in 10.0 mi Calm Calm - N/A   Clear
8:53 AM 51.1 °F - 32.0 °F 48% 29.58 in 10.0 mi Variable 5.8 mph - N/A   Clear
9:53 AM 69.1 °F - 19.9 °F 15% 29.54 in 10.0 mi West 23.0 mph 28.8 mph N/A   Clear
10:53 AM 75.0 °F - 18.0 °F 12% 29.50 in 10.0 mi WSW 26.5 mph 32.2 mph N/A   Clear
11:53 AM 75.0 °F - 16.0 °F 11% 29.47 in 10.0 mi SW 16.1 mph - N/A   Clear
12:53 PM 77.0 °F - 15.1 °F 10% 29.46 in 10.0 mi WSW 21.9 mph 34.5 mph N/A   Clear
1:53 PM 75.9 °F - 15.1 °F 10% 29.46 in 10.0 mi West 15.0 mph - N/A   Clear
2:53 PM 77.0 °F - 17.1 °F 10% 29.46 in 10.0 mi WSW 18.4 mph 28.8 mph N/A   Clear
3:53 PM 73.0 °F - 21.9 °F 15% 29.47 in 10.0 mi West 17.3 mph - N/A   Clear
4:53 PM 62.1 °F - 24.1 °F 23% 29.49 in 10.0 mi WSW 8.1 mph - N/A   Clear
5:53 PM 57.0 °F - 24.1 °F 28% 29.52 in 10.0 mi SSW 9.2 mph - N/A   Clear
6:53 PM 59.0 °F - 24.1 °F 26% 29.53 in 10.0 mi WSW 11.5 mph - N/A   Clear
7:53 PM 48.9 °F - 25.0 °F 39% 29.56 in 10.0 mi WSW 4.6 mph - N/A   Clear
8:53 PM 50.0 °F - 26.1 °F 39% 29.54 in 10.0 mi SSW 10.4 mph - N/A   Clear
9:53 PM 48.0 °F - 25.0 °F 41% 29.53 in 10.0 mi ESE 3.5 mph - N/A   Clear
10:53 PM 46.9 °F - 25.0 °F 42% 29.54 in 10.0 mi North 6.9 mph - N/A   Clear